Time,TemperatureF,DewpointF,PressureIn,WindDirection,WindDirectionDegrees,WindSpeedMPH,WindSpeedGustMPH,Humidity,HourlyPrecipIn,Conditions,Clouds,dailyrainin,SolarRadiationWatts/m^2,SoftwareType,DateUTC
2013-07-07 00:01:00,77.6,73.1,30.00,West,269,0.0,1.0,86,0.00,,CLR,0.00,0.00,VWS V14.01,2013-07-07 04:01:00,
2013-07-07 00:05:00,77.6,73.1,30.00,West,279,0.0,4.0,86,0.00,,CLR,0.00,0.00,VWS V14.01,2013-07-07 04:05:00,
2013-07-07 00:10:00,77.5,73.0,30.00,WNW,284,0.0,4.0,86,0.00,,CLR,0.00,0.00,VWS V14.01,2013-07-07 04:10:00,
2013-07-07 00:15:00,77.3,72.8,30.00,WNW,285,0.0,0.0,86,0.00,,CLR,0.00,0.00,VWS V14.01,2013-07-07 04:15:00,
2013-07-07 00:20:00,77.4,72.9,30.00,WNW,300,0.0,3.0,86,0.00,,CLR,0.00,0.00,VWS V14.01,2013-07-07 04:20:00,
2013-07-07 00:25:00,77.6,73.1,30.00,WNW,296,0.0,0.0,86,0.00,,CLR,0.00,0.00,VWS V14.01,2013-07-07 04:25:00,
2013-07-07 00:30:00,77.6,72.7,30.00,WNW,299,0.0,3.0,85,0.00,,CLR,0.00,0.00,VWS V14.01,2013-07-07 04:30:00,
2013-07-07 00:35:00,77.6,72.7,30.00,WNW,296,0.0,2.0,85,0.00,,CLR,0.00,0.00,VWS V14.01,2013-07-07 04:35:00,
2013-07-07 00:40:00,77.6,72.7,30.00,WNW,300,0.0,0.0,85,0.00,,CLR,0.00,0.00,VWS V14.01,2013-07-07 04:40:00,
2013-07-07 00:45:00,77.5,73.0,30.00,NW,304,0.0,2.0,86,0.00,,CLR,0.00,0.00,VWS V14.01,2013-07-07 04:45:00,
2013-07-07 00:50:00,77.5,72.6,30.00,NW,308,0.0,0.0,85,0.00,,CLR,0.00,0.00,VWS V14.01,2013-07-07 04:50:00,
2013-07-07 00:55:00,77.5,73.0,30.00,NW,309,0.0,1.0,86,0.00,,CLR,0.00,0.00,VWS V14.01,2013-07-07 04:55:00,
2013-07-07 01:00:00,77.2,72.7,30.00,NW,309,0.0,0.0,86,0.00,,CLR,0.00,0.00,VWS V14.01,2013-07-07 05:00:00,
2013-07-07 01:05:00,76.7,72.5,30.00,NW,310,0.0,0.0,87,0.00,,CLR,0.00,0.00,VWS V14.01,2013-07-07 05:05:00,
2013-07-07 01:10:00,76.6,72.4,30.00,NW,311,0.0,1.0,87,0.00,,CLR,0.00,0.00,VWS V14.01,2013-07-07 05:10:00,
2013-07-07 01:15:00,76.6,72.4,30.00,NW,315,0.0,2.0,87,0.00,,CLR,0.00,0.00,VWS V14.01,2013-07-07 05:15:00,
2013-07-07 01:20:00,77.0,72.5,30.00,NW,322,0.0,1.0,86,0.00,,CLR,0.00,0.00,VWS V14.01,2013-07-07 05:20:00,
2013-07-07 01:25:00,77.3,72.4,30.00,NW,322,0.0,0.0,85,0.00,,CLR,0.00,0.00,VWS V14.01,2013-07-07 05:25:00,
2013-07-07 01:30:00,77.5,72.6,30.00,NW,325,0.0,0.0,85,0.00,,CLR,0.00,0.00,VWS V14.01,2013-07-07 05:30:00,
2013-07-07 01:35:00,77.4,72.5,30.00,NW,325,0.0,0.0,85,0.00,,CLR,0.00,0.00,VWS V14.01,2013-07-07 05:35:00,
2013-07-07 01:40:00,77.4,72.5,30.00,NW,325,0.0,4.0,85,0.00,,CLR,0.00,0.00,VWS V14.01,2013-07-07 05:40:00,
2013-07-07 01:45:00,77.5,72.6,30.00,NW,325,0.0,2.0,85,0.00,,CLR,0.00,0.00,VWS V14.01,2013-07-07 05:45:00,
2013-07-07 01:50:00,77.5,72.6,30.00,NW,323,0.0,2.0,85,0.00,,CLR,0.00,0.00,VWS V14.01,2013-07-07 05:50:00,
2013-07-07 01:55:00,77.6,72.7,30.00,NW,326,0.0,4.0,85,0.00,,CLR,0.00,0.00,VWS V14.01,2013-07-07 05:55:00,
2013-07-07 02:00:00,77.6,72.7,30.00,NW,326,0.0,1.0,85,0.00,,CLR,0.00,0.00,VWS V14.01,2013-07-07 06:00:00,
2013-07-07 02:05:00,77.6,72.7,30.00,NNW,327,0.0,2.0,85,0.00,,CLR,0.00,0.00,VWS V14.01,2013-07-07 06:05:00,
2013-07-07 02:10:00,77.6,72.7,30.00,NW,323,0.0,4.0,85,0.00,,CLR,0.00,0.00,VWS V14.01,2013-07-07 06:10:00,
2013-07-07 02:15:00,77.5,72.6,30.00,NW,317,0.0,5.0,85,0.00,,CLR,0.00,0.00,VWS V14.01,2013-07-07 06:15:00,
2013-07-07 02:20:00,77.6,72.7,30.00,NW,321,0.0,2.0,85,0.00,,CLR,0.00,0.00,VWS V14.01,2013-07-07 06:20:00,
2013-07-07 02:25:00,77.6,72.7,30.00,NW,316,0.0,7.0,85,0.00,,CLR,0.00,0.00,VWS V14.01,2013-07-07 06:25:00,
2013-07-07 02:30:00,77.6,72.7,30.00,NW,316,0.0,0.0,85,0.00,,CLR,0.00,0.00,VWS V14.01,2013-07-07 06:30:00,
2013-07-07 02:35:00,77.7,72.8,30.00,NW,317,0.0,4.0,85,0.00,,CLR,0.00,0.00,VWS V14.01,2013-07-07 06:35:00,
2013-07-07 02:40:00,77.7,72.5,30.00,NW,318,0.0,1.0,84,0.00,,CLR,0.00,0.00,VWS V14.01,2013-07-07 06:40:00,
2013-07-07 02:45:00,77.7,72.5,30.00,NW,318,0.0,2.0,84,0.00,,CLR,0.00,0.00,VWS V14.01,2013-07-07 06:45:00,
2013-07-07 02:50:00,77.8,72.6,30.00,WNW,302,1.0,7.0,84,0.00,,CLR,0.00,0.00,VWS V14.01,2013-07-07 06:50:00,
2013-07-07 02:55:00,77.9,72.7,30.00,NW,309,1.0,7.0,84,0.00,,CLR,0.00,0.00,VWS V14.01,2013-07-07 06:55:00,
2013-07-07 03:00:00,78.0,72.8,30.00,NW,314,0.0,1.0,84,0.00,,CLR,0.00,0.00,VWS V14.01,2013-07-07 07:00:00,
2013-07-07 03:05:00,78.0,72.4,30.00,NW,313,0.0,3.0,83,0.00,,CLR,0.00,0.00,VWS V14.01,2013-07-07 07:05:00,
2013-07-07 03:10:00,78.0,72.8,30.00,NW,314,3.0,3.0,84,0.00,,CLR,0.00,0.00,VWS V14.01,2013-07-07 07:10:00,
2013-07-07 03:15:00,78.2,72.6,30.00,NW,325,0.0,6.0,83,0.00,,CLR,0.00,0.00,VWS V14.01,2013-07-07 07:15:00,
2013-07-07 03:20:00,78.4,72.8,30.00,NW,326,3.0,4.0,83,0.00,,CLR,0.00,0.00,VWS V14.01,2013-07-07 07:20:00,
2013-07-07 03:25:00,78.6,73.0,30.00,NW,323,0.0,2.0,83,0.00,,CLR,0.00,0.00,VWS V14.01,2013-07-07 07:25:00,
2013-07-07 03:30:00,78.6,73.0,30.00,NW,321,0.0,3.0,83,0.00,,CLR,0.00,0.00,VWS V14.01,2013-07-07 07:30:00,
2013-07-07 03:35:00,78.7,73.1,30.00,NW,321,0.0,1.0,83,0.00,,CLR,0.00,0.00,VWS V14.01,2013-07-07 07:35:00,
2013-07-07 03:40:00,78.7,73.1,30.00,NW,321,0.0,4.0,83,0.00,,CLR,0.00,0.00,VWS V14.01,2013-07-07 07:40:00,
2013-07-07 03:45:00,78.6,73.0,30.00,NW,319,0.0,2.0,83,0.00,,CLR,0.00,0.00,VWS V14.01,2013-07-07 07:45:00,
2013-07-07 03:50:00,78.5,72.9,30.00,NW,318,2.0,4.0,83,0.00,,CLR,0.00,0.00,VWS V14.01,2013-07-07 07:50:00,
2013-07-07 03:55:00,78.2,73.0,30.00,NNW,327,0.0,0.0,84,0.00,,CLR,0.00,0.00,VWS V14.01,2013-07-07 07:55:00,
2013-07-07 04:00:00,78.1,72.9,29.99,NNW,327,0.0,0.0,84,0.00,,CLR,0.00,0.00,VWS V14.01,2013-07-07 08:00:00,
2013-07-07 04:05:00,78.1,72.9,29.99,NW,321,0.0,4.0,84,0.00,,CLR,0.00,0.00,VWS V14.01,2013-07-07 08:05:00,
2013-07-07 04:10:00,78.2,73.0,29.99,NW,315,0.0,4.0,84,0.00,,CLR,0.00,0.00,VWS V14.01,2013-07-07 08:10:00,
2013-07-07 04:15:00,78.1,72.9,29.99,NW,309,2.0,9.0,84,0.00,,CLR,0.00,0.00,VWS V14.01,2013-07-07 08:15:00,
2013-07-07 04:20:00,78.2,73.0,29.99,NW,318,0.0,4.0,84,0.00,,CLR,0.00,0.00,VWS V14.01,2013-07-07 08:20:00,
2013-07-07 04:25:00,78.2,73.0,29.99,NNW,328,0.0,5.0,84,0.00,,CLR,0.00,0.00,VWS V14.01,2013-07-07 08:25:00,
2013-07-07 04:30:00,78.2,73.0,29.99,NW,325,0.0,5.0,84,0.00,,CLR,0.00,0.00,VWS V14.01,2013-07-07 08:30:00,
2013-07-07 04:35:00,78.1,72.9,29.99,NW,323,0.0,5.0,84,0.00,,CLR,0.00,0.00,VWS V14.01,2013-07-07 08:35:00,
2013-07-07 04:40:00,78.0,72.8,29.99,NW,326,0.0,2.0,84,0.00,,CLR,0.00,0.00,VWS V14.01,2013-07-07 08:40:00,
2013-07-07 04:45:00,78.2,73.0,29.99,NW,326,0.0,2.0,84,0.00,,CLR,0.00,0.00,VWS V14.01,2013-07-07 08:45:00,
2013-07-07 04:50:00,78.2,73.0,29.99,NNW,328,0.0,1.0,84,0.00,,CLR,0.00,0.00,VWS V14.01,2013-07-07 08:50:00,
2013-07-07 04:55:00,78.2,73.0,29.99,NW,315,0.0,4.0,84,0.00,,CLR,0.00,0.00,VWS V14.01,2013-07-07 08:55:00,
2013-07-07 05:00:00,78.3,73.1,29.99,NNW,327,0.0,3.0,84,0.00,,CLR,0.00,0.00,VWS V14.01,2013-07-07 09:00:00,
2013-07-07 05:05:00,78.2,73.3,29.99,NNW,331,0.0,2.0,85,0.00,,CLR,0.00,0.00,VWS V14.01,2013-07-07 09:05:00,
2013-07-07 05:10:00,78.2,73.3,29.99,NNW,334,4.0,4.0,85,0.00,,CLR,0.00,0.00,VWS V14.01,2013-07-07 09:10:00,
2013-07-07 05:15:00,78.1,73.2,29.99,NNW,335,0.0,4.0,85,0.00,,CLR,0.00,0.00,VWS V14.01,2013-07-07 09:15:00,
2013-07-07 05:20:00,78.0,73.5,29.99,NNW,336,3.0,4.0,86,0.00,,CLR,0.00,0.00,VWS V14.01,2013-07-07 09:20:00,
2013-07-07 05:25:00,77.9,73.4,29.99,NNW,340,0.0,5.0,86,0.00,,CLR,0.00,0.00,VWS V14.01,2013-07-07 09:25:00,
2013-07-07 05:30:00,77.9,73.4,29.99,North,349,3.0,5.0,86,0.00,,CLR,0.00,5.00,VWS V14.01,2013-07-07 09:30:00,
2013-07-07 05:35:00,77.8,73.6,29.99,NNW,348,1.0,6.0,87,0.00,,CLR,0.00,9.00,VWS V14.01,2013-07-07 09:35:00,
2013-07-07 05:40:00,77.9,73.7,29.99,NNW,337,0.0,6.0,87,0.00,,CLR,0.00,11.00,VWS V14.01,2013-07-07 09:40:00,
2013-07-07 05:45:00,78.0,73.8,29.99,North,355,4.0,6.0,87,0.00,,CLR,0.00,16.00,VWS V14.01,2013-07-07 09:45:00,
2013-07-07 05:50:00,78.0,73.8,29.99,North,355,0.0,6.0,87,0.00,,CLR,0.00,21.00,VWS V14.01,2013-07-07 09:50:00,
2013-07-07 05:55:00,78.0,73.8,29.99,North,355,0.0,0.0,87,0.00,,CLR,0.00,26.00,VWS V14.01,2013-07-07 09:55:00,
2013-07-07 06:00:00,78.1,73.9,29.99,NNW,348,1.0,4.0,87,0.00,,CLR,0.00,30.00,VWS V14.01,2013-07-07 10:00:00,
2013-07-07 06:05:00,78.2,74.0,29.99,North,350,0.0,4.0,87,0.00,,CLR,0.00,35.00,VWS V14.01,2013-07-07 10:05:00,
2013-07-07 06:10:00,78.2,73.7,29.99,North,350,0.0,4.0,86,0.00,,CLR,0.00,39.00,VWS V14.01,2013-07-07 10:10:00,
2013-07-07 06:15:00,78.5,74.0,29.99,NNW,345,2.0,6.0,86,0.00,,CLR,0.00,42.00,VWS V14.01,2013-07-07 10:15:00,
2013-07-07 06:20:00,78.7,73.8,29.99,NNW,344,0.0,5.0,85,0.00,,CLR,0.00,44.00,VWS V14.01,2013-07-07 10:20:00,
2013-07-07 06:25:00,78.9,74.0,29.99,NNW,344,3.0,3.0,85,0.00,,CLR,0.00,53.00,VWS V14.01,2013-07-07 10:25:00,
2013-07-07 06:30:00,79.1,74.2,30.00,NNW,345,0.0,4.0,85,0.00,,CLR,0.00,72.00,VWS V14.01,2013-07-07 10:30:00,
2013-07-07 06:35:00,79.3,74.4,29.99,NNW,342,0.0,2.0,85,0.00,,CLR,0.00,84.00,VWS V14.01,2013-07-07 10:35:00,
2013-07-07 06:40:00,79.6,75.1,30.00,NNW,342,0.0,0.0,86,0.00,,CLR,0.00,97.00,VWS V14.01,2013-07-07 10:40:00,
2013-07-07 06:45:00,80.1,75.2,30.00,NNW,342,0.0,0.0,85,0.00,,CLR,0.00,114.00,VWS V14.01,2013-07-07 10:45:00,
2013-07-07 06:50:00,80.6,75.3,30.00,NNW,342,0.0,2.0,84,0.00,,CLR,0.00,109.00,VWS V14.01,2013-07-07 10:50:00,
2013-07-07 06:55:00,80.6,75.0,30.00,NNW,344,3.0,4.0,83,0.00,,CLR,0.00,148.00,VWS V14.01,2013-07-07 10:55:00,
2013-07-07 06:59:00,81.0,75.0,30.00,NW,304,0.0,5.0,82,0.00,,CLR,0.00,146.00,VWS V14.01,2013-07-07 10:59:00,
2013-07-07 07:04:00,81.5,75.5,30.00,NNW,340,0.0,2.0,82,0.00,,CLR,0.00,183.00,VWS V14.01,2013-07-07 11:04:00,
2013-07-07 07:09:00,82.1,75.7,30.00,NNW,338,0.0,4.0,81,0.00,,CLR,0.00,202.00,VWS V14.01,2013-07-07 11:09:00,
2013-07-07 07:14:00,82.4,75.6,30.00,WNW,298,0.0,4.0,80,0.00,,CLR,0.00,218.00,VWS V14.01,2013-07-07 11:14:00,
2013-07-07 07:19:00,82.4,75.6,30.00,WNW,300,0.0,7.0,80,0.00,,CLR,0.00,232.00,VWS V14.01,2013-07-07 11:19:00,
2013-07-07 07:24:00,82.5,76.1,30.00,WNW,289,0.0,4.0,81,0.00,,CLR,0.00,246.00,VWS V14.01,2013-07-07 11:24:00,
2013-07-07 07:29:00,83.2,76.4,30.00,WNW,301,0.0,3.0,80,0.00,,CLR,0.00,260.00,VWS V14.01,2013-07-07 11:29:00,
2013-07-07 07:34:00,83.6,76.4,30.00,WNW,291,0.0,3.0,79,0.00,,CLR,0.00,279.00,VWS V14.01,2013-07-07 11:34:00,
2013-07-07 07:39:00,84.0,76.4,30.00,WNW,289,0.0,2.0,78,0.00,,CLR,0.00,294.00,VWS V14.01,2013-07-07 11:39:00,
2013-07-07 07:44:00,84.1,76.9,30.00,WSW,257,0.0,4.0,79,0.00,,CLR,0.00,304.00,VWS V14.01,2013-07-07 11:44:00,
2013-07-07 07:49:00,84.2,76.2,30.00,WNW,302,0.0,4.0,77,0.00,,CLR,0.00,316.00,VWS V14.01,2013-07-07 11:49:00,
2013-07-07 07:54:00,84.4,76.8,30.00,West,278,0.0,2.0,78,0.00,,CLR,0.00,336.00,VWS V14.01,2013-07-07 11:54:00,
2013-07-07 07:59:00,84.3,76.3,30.00,NNW,328,0.0,7.0,77,0.00,,CLR,0.00,353.00,VWS V14.01,2013-07-07 11:59:00,
2013-07-07 08:04:00,84.5,76.5,30.00,West,267,0.0,7.0,77,0.00,,CLR,0.00,371.00,VWS V14.01,2013-07-07 12:04:00,
2013-07-07 08:09:00,85.1,76.7,30.00,West,277,0.0,3.0,76,0.00,,CLR,0.00,387.00,VWS V14.01,2013-07-07 12:09:00,
2013-07-07 08:14:00,85.3,76.1,30.00,NW,310,0.0,6.0,74,0.00,,CLR,0.00,399.00,VWS V14.01,2013-07-07 12:14:00,
2013-07-07 08:19:00,85.4,76.2,30.01,North,355,2.0,8.0,74,0.00,,CLR,0.00,415.00,VWS V14.01,2013-07-07 12:19:00,
2013-07-07 08:24:00,85.7,76.1,30.01,NW,318,0.0,8.0,73,0.00,,CLR,0.00,431.00,VWS V14.01,2013-07-07 12:24:00,
2013-07-07 08:29:00,86.3,76.6,30.00,NNW,329,0.0,8.0,73,0.00,,CLR,0.00,446.00,VWS V14.01,2013-07-07 12:29:00,
2013-07-07 08:34:00,86.6,76.5,30.00,West,276,2.0,9.0,72,0.00,,CLR,0.00,459.00,VWS V14.01,2013-07-07 12:34:00,
2013-07-07 08:39:00,86.3,76.2,30.01,NNW,335,0.0,9.0,72,0.00,,CLR,0.00,476.00,VWS V14.01,2013-07-07 12:39:00,
2013-07-07 08:44:00,86.6,76.5,30.01,NNW,327,0.0,10.0,72,0.00,,CLR,0.00,490.00,VWS V14.01,2013-07-07 12:44:00,
2013-07-07 08:49:00,86.4,76.3,30.01,NNW,327,0.0,10.0,72,0.00,,CLR,0.00,504.00,VWS V14.01,2013-07-07 12:49:00,
2013-07-07 08:54:00,86.3,76.2,30.01,NNW,331,1.0,8.0,72,0.00,,CLR,0.00,522.00,VWS V14.01,2013-07-07 12:54:00,
2013-07-07 08:59:00,86.6,76.5,30.01,NW,306,0.0,9.0,72,0.00,,CLR,0.00,534.00,VWS V14.01,2013-07-07 12:59:00,
2013-07-07 09:04:00,86.5,76.4,30.00,NNW,331,3.0,10.0,72,0.00,,CLR,0.00,548.00,VWS V14.01,2013-07-07 13:04:00,
2013-07-07 09:09:00,86.7,76.6,30.00,NW,326,0.0,7.0,72,0.00,,CLR,0.00,568.00,VWS V14.01,2013-07-07 13:09:00,
2013-07-07 09:14:00,86.8,75.8,30.01,NW,323,4.0,9.0,70,0.00,,CLR,0.00,577.00,VWS V14.01,2013-07-07 13:14:00,
2013-07-07 09:19:00,86.7,76.2,30.01,NW,304,2.0,8.0,71,0.00,,CLR,0.00,592.00,VWS V14.01,2013-07-07 13:19:00,
2013-07-07 09:24:00,86.8,76.3,30.01,NW,313,0.0,9.0,71,0.00,,CLR,0.00,608.00,VWS V14.01,2013-07-07 13:24:00,
2013-07-07 09:29:00,86.8,76.3,30.00,NW,306,0.0,9.0,71,0.00,,CLR,0.00,617.00,VWS V14.01,2013-07-07 13:29:00,
2013-07-07 09:34:00,86.6,76.1,30.00,NW,321,2.0,10.0,71,0.00,,CLR,0.00,635.00,VWS V14.01,2013-07-07 13:34:00,
2013-07-07 09:39:00,87.1,76.6,30.00,WNW,303,7.0,10.0,71,0.00,,CLR,0.00,649.00,VWS V14.01,2013-07-07 13:39:00,
2013-07-07 09:44:00,86.8,76.3,30.00,North,355,2.0,10.0,71,0.00,,CLR,0.00,661.00,VWS V14.01,2013-07-07 13:44:00,
2013-07-07 09:49:00,86.7,76.6,30.00,North,355,9.0,10.0,72,0.00,,CLR,0.00,675.00,VWS V14.01,2013-07-07 13:49:00,
2013-07-07 09:54:00,87.0,76.0,30.00,NW,325,4.0,9.0,70,0.00,,CLR,0.00,689.00,VWS V14.01,2013-07-07 13:54:00,
2013-07-07 09:59:00,87.0,76.5,30.00,NNW,345,6.0,10.0,71,0.00,,CLR,0.00,701.00,VWS V14.01,2013-07-07 13:59:00,
2013-07-07 10:04:00,87.3,75.9,30.00,NW,322,6.0,12.0,69,0.00,,CLR,0.00,712.00,VWS V14.01,2013-07-07 14:04:00,
2013-07-07 10:09:00,87.7,76.7,30.00,NW,316,6.0,9.0,70,0.00,,CLR,0.00,728.00,VWS V14.01,2013-07-07 14:09:00,
2013-07-07 10:14:00,88.2,76.8,29.99,NNW,340,1.0,8.0,69,0.00,,CLR,0.00,728.00,VWS V14.01,2013-07-07 14:14:00,
2013-07-07 10:19:00,88.2,76.3,30.00,NW,325,3.0,9.0,68,0.00,,CLR,0.00,715.00,VWS V14.01,2013-07-07 14:19:00,
2013-07-07 10:24:00,88.4,76.5,30.00,NNW,329,0.0,4.0,68,0.00,,CLR,0.00,740.00,VWS V14.01,2013-07-07 14:24:00,
2013-07-07 10:29:00,88.5,76.2,30.00,WNW,291,0.0,9.0,67,0.00,,CLR,0.00,763.00,VWS V14.01,2013-07-07 14:29:00,
2013-07-07 10:34:00,88.4,76.1,29.99,North,355,6.0,10.0,67,0.00,,CLR,0.00,773.00,VWS V14.01,2013-07-07 14:34:00,
2013-07-07 10:39:00,88.3,76.4,29.99,NW,319,5.0,8.0,68,0.00,,CLR,0.00,729.00,VWS V14.01,2013-07-07 14:39:00,
2013-07-07 10:44:00,88.8,76.4,29.99,North,5,0.0,6.0,67,0.00,,CLR,0.00,784.00,VWS V14.01,2013-07-07 14:44:00,
2013-07-07 10:49:00,89.3,76.5,29.99,WNW,303,0.0,7.0,66,0.00,,CLR,0.00,817.00,VWS V14.01,2013-07-07 14:49:00,
2013-07-07 10:54:00,89.2,75.4,29.99,NW,312,4.0,8.0,64,0.00,,CLR,0.00,831.00,VWS V14.01,2013-07-07 14:54:00,
2013-07-07 10:59:00,89.0,75.7,29.99,NW,323,0.0,8.0,65,0.00,,CLR,0.00,838.00,VWS V14.01,2013-07-07 14:59:00,
2013-07-07 11:04:00,89.8,76.5,29.99,NNW,336,1.0,10.0,65,0.00,,CLR,0.00,846.00,VWS V14.01,2013-07-07 15:04:00,
2013-07-07 11:09:00,91.3,77.4,29.99,WNW,292,0.0,5.0,64,0.00,,CLR,0.00,853.00,VWS V14.01,2013-07-07 15:09:00,
2013-07-07 11:14:00,92.0,77.6,29.99,WNW,287,1.0,6.0,63,0.00,,CLR,0.00,853.00,VWS V14.01,2013-07-07 15:14:00,
2013-07-07 11:19:00,92.0,78.1,29.99,WNW,296,5.0,5.0,64,0.00,,CLR,0.00,854.00,VWS V14.01,2013-07-07 15:19:00,
2013-07-07 11:24:00,91.2,78.3,29.98,WNW,300,0.0,7.0,66,0.00,,CLR,0.00,875.00,VWS V14.01,2013-07-07 15:24:00,
2013-07-07 11:29:00,91.8,78.8,29.98,West,275,6.0,7.0,66,0.00,,CLR,0.00,870.00,VWS V14.01,2013-07-07 15:29:00,
2013-07-07 11:34:00,92.0,79.5,29.98,West,279,0.0,10.0,67,0.00,,CLR,0.00,874.00,VWS V14.01,2013-07-07 15:34:00,
2013-07-07 11:39:00,92.3,78.8,29.98,WNW,283,6.0,8.0,65,0.00,,CLR,0.00,877.00,VWS V14.01,2013-07-07 15:39:00,
2013-07-07 11:44:00,92.0,79.0,29.98,WNW,289,0.0,8.0,66,0.00,,CLR,0.00,893.00,VWS V14.01,2013-07-07 15:44:00,
2013-07-07 11:49:00,92.8,79.3,29.98,NNW,342,0.0,9.0,65,0.00,,CLR,0.00,912.00,VWS V14.01,2013-07-07 15:49:00,
2013-07-07 11:54:00,93.4,78.9,29.98,WNW,282,3.0,6.0,63,0.00,,CLR,0.00,819.00,VWS V14.01,2013-07-07 15:54:00,
2013-07-07 11:59:00,93.0,78.6,29.98,West,260,8.0,8.0,63,0.00,,CLR,0.00,923.00,VWS V14.01,2013-07-07 15:59:00,
2013-07-07 12:04:00,93.2,79.7,29.98,West,275,0.0,8.0,65,0.00,,CLR,0.00,925.00,VWS V14.01,2013-07-07 16:04:00,
2013-07-07 12:09:00,93.5,79.5,29.98,West,271,1.0,7.0,64,0.00,,CLR,0.00,928.00,VWS V14.01,2013-07-07 16:09:00,
2013-07-07 12:14:00,93.0,79.0,29.98,NW,309,2.0,7.0,64,0.00,,CLR,0.00,930.00,VWS V14.01,2013-07-07 16:14:00,
2013-07-07 12:19:00,92.0,78.1,29.98,WNW,299,4.0,8.0,64,0.00,,CLR,0.00,930.00,VWS V14.01,2013-07-07 16:19:00,
2013-07-07 12:24:00,92.1,78.7,29.98,NW,323,2.0,5.0,65,0.00,,CLR,0.00,930.00,VWS V14.01,2013-07-07 16:24:00,
2013-07-07 12:29:00,92.0,78.1,29.98,NW,307,1.0,4.0,64,0.00,,CLR,0.00,933.00,VWS V14.01,2013-07-07 16:29:00,
2013-07-07 12:34:00,92.7,78.3,29.98,WNW,296,1.0,5.0,63,0.00,,CLR,0.00,940.00,VWS V14.01,2013-07-07 16:34:00,
2013-07-07 12:39:00,92.5,79.0,29.98,WNW,296,0.0,2.0,65,0.00,,CLR,0.00,946.00,VWS V14.01,2013-07-07 16:39:00,
2013-07-07 12:44:00,93.1,78.6,29.98,WNW,302,2.0,4.0,63,0.00,,CLR,0.00,933.00,VWS V14.01,2013-07-07 16:44:00,
2013-07-07 12:49:00,92.6,78.2,29.98,WNW,283,6.0,7.0,63,0.00,,CLR,0.00,933.00,VWS V14.01,2013-07-07 16:49:00,
2013-07-07 12:54:00,92.1,77.7,29.98,WNW,288,1.0,7.0,63,0.00,,CLR,0.00,940.00,VWS V14.01,2013-07-07 16:54:00,
2013-07-07 12:59:00,93.0,78.1,29.98,West,264,6.0,7.0,62,0.00,,CLR,0.00,944.00,VWS V14.01,2013-07-07 16:59:00,
2013-07-07 13:04:00,92.8,76.9,29.97,WSW,257,3.0,11.0,60,0.00,,CLR,0.00,946.00,VWS V14.01,2013-07-07 17:04:00,
2013-07-07 13:09:00,93.1,76.7,29.97,WSW,252,0.0,11.0,59,0.00,,CLR,0.00,946.00,VWS V14.01,2013-07-07 17:09:00,
2013-07-07 13:14:00,93.0,76.6,29.97,West,279,9.0,12.0,59,0.00,,CLR,0.00,951.00,VWS V14.01,2013-07-07 17:14:00,
2013-07-07 13:19:00,92.4,77.0,29.97,WSW,255,4.0,8.0,61,0.00,,CLR,0.00,953.00,VWS V14.01,2013-07-07 17:19:00,
2013-07-07 13:23:00,92.5,77.1,29.97,West,265,0.0,11.0,61,0.00,,CLR,0.00,947.00,VWS V14.01,2013-07-07 17:23:00,
2013-07-07 13:28:00,92.6,77.2,29.97,WSW,242,1.0,4.0,61,0.00,,CLR,0.00,953.00,VWS V14.01,2013-07-07 17:28:00,
2013-07-07 13:33:00,92.7,76.3,29.97,WSW,256,8.0,10.0,59,0.00,,CLR,0.00,951.00,VWS V14.01,2013-07-07 17:33:00,
2013-07-07 13:38:00,92.3,75.9,29.97,WSW,251,8.0,12.0,59,0.00,,CLR,0.00,946.00,VWS V14.01,2013-07-07 17:38:00,
2013-07-07 13:43:00,92.0,76.1,29.96,WSW,243,8.0,12.0,60,0.00,,CLR,0.00,944.00,VWS V14.01,2013-07-07 17:43:00,
2013-07-07 13:48:00,91.7,75.8,29.96,West,263,3.0,10.0,60,0.00,,CLR,0.00,937.00,VWS V14.01,2013-07-07 17:48:00,
2013-07-07 13:53:00,91.8,75.9,29.96,West,260,3.0,10.0,60,0.00,,CLR,0.00,939.00,VWS V14.01,2013-07-07 17:53:00,
2013-07-07 13:58:00,91.8,75.9,29.96,West,277,1.0,9.0,60,0.00,,CLR,0.00,935.00,VWS V14.01,2013-07-07 17:58:00,
2013-07-07 14:03:00,92.0,75.1,29.96,SW,225,3.0,9.0,58,0.00,,CLR,0.00,930.00,VWS V14.01,2013-07-07 18:03:00,
2013-07-07 14:08:00,91.9,73.4,29.96,West,265,3.0,12.0,55,0.00,,CLR,0.00,925.00,VWS V14.01,2013-07-07 18:08:00,
2013-07-07 14:13:00,91.6,72.6,29.95,WSW,245,2.0,16.0,54,0.00,,CLR,0.00,925.00,VWS V14.01,2013-07-07 18:13:00,
2013-07-07 14:18:00,91.6,73.7,29.95,SW,227,6.0,12.0,56,0.00,,CLR,0.00,921.00,VWS V14.01,2013-07-07 18:18:00,
2013-07-07 14:23:00,91.4,74.6,29.95,SW,225,7.0,12.0,58,0.00,,CLR,0.00,912.00,VWS V14.01,2013-07-07 18:23:00,
2013-07-07 14:28:00,90.9,74.1,29.95,West,269,3.0,11.0,58,0.00,,CLR,0.00,905.00,VWS V14.01,2013-07-07 18:28:00,
2013-07-07 14:33:00,90.8,75.0,29.95,West,272,4.0,15.0,60,0.00,,CLR,0.00,912.00,VWS V14.01,2013-07-07 18:33:00,
2013-07-07 14:38:00,90.6,75.3,29.95,West,265,6.0,11.0,61,0.00,,CLR,0.00,889.00,VWS V14.01,2013-07-07 18:38:00,
2013-07-07 14:43:00,90.1,75.3,29.95,West,259,6.0,12.0,62,0.00,,CLR,0.00,895.00,VWS V14.01,2013-07-07 18:43:00,
2013-07-07 14:48:00,90.2,75.9,29.94,WSW,256,5.0,10.0,63,0.00,,CLR,0.00,891.00,VWS V14.01,2013-07-07 18:48:00,
2013-07-07 14:53:00,90.1,75.8,29.94,WSW,257,4.0,13.0,63,0.00,,CLR,0.00,881.00,VWS V14.01,2013-07-07 18:53:00,
2013-07-07 14:58:00,89.9,75.6,29.93,WSW,255,2.0,11.0,63,0.00,,CLR,0.00,853.00,VWS V14.01,2013-07-07 18:58:00,
2013-07-07 15:03:00,89.9,75.6,29.94,West,273,8.0,12.0,63,0.00,,CLR,0.00,870.00,VWS V14.01,2013-07-07 19:03:00,
2013-07-07 15:08:00,89.4,75.2,29.93,WSW,253,4.0,13.0,63,0.00,,CLR,0.00,861.00,VWS V14.01,2013-07-07 19:08:00,
2013-07-07 15:13:00,89.4,75.6,29.94,West,271,3.0,12.0,64,0.00,,CLR,0.00,842.00,VWS V14.01,2013-07-07 19:13:00,
2013-07-07 15:18:00,89.4,74.7,29.94,West,271,3.0,14.0,62,0.00,,CLR,0.00,844.00,VWS V14.01,2013-07-07 19:18:00,
2013-07-07 15:23:00,89.5,75.2,29.94,WSW,249,2.0,13.0,63,0.00,,CLR,0.00,826.00,VWS V14.01,2013-07-07 19:23:00,
2013-07-07 15:28:00,89.3,75.1,29.94,West,267,6.0,12.0,63,0.00,,CLR,0.00,821.00,VWS V14.01,2013-07-07 19:28:00,
2013-07-07 15:33:00,88.9,74.7,29.94,WSW,252,11.0,13.0,63,0.00,,CLR,0.00,798.00,VWS V14.01,2013-07-07 19:33:00,
2013-07-07 15:38:00,89.0,75.7,29.94,WNW,294,4.0,10.0,65,0.00,,CLR,0.00,795.00,VWS V14.01,2013-07-07 19:38:00,
2013-07-07 15:43:00,89.3,76.0,29.94,West,265,1.0,7.0,65,0.00,,CLR,0.00,789.00,VWS V14.01,2013-07-07 19:43:00,
2013-07-07 15:48:00,89.3,75.5,29.94,WNW,282,3.0,13.0,64,0.00,,CLR,0.00,775.00,VWS V14.01,2013-07-07 19:48:00,
2013-07-07 15:53:00,88.9,75.2,29.94,West,267,4.0,8.0,64,0.00,,CLR,0.00,761.00,VWS V14.01,2013-07-07 19:53:00,
2013-07-07 15:58:00,88.9,75.6,29.93,WSW,246,9.0,9.0,65,0.00,,CLR,0.00,761.00,VWS V14.01,2013-07-07 19:58:00,
2013-07-07 16:03:00,88.8,75.5,29.93,West,268,2.0,13.0,65,0.00,,CLR,0.00,749.00,VWS V14.01,2013-07-07 20:03:00,
2013-07-07 16:08:00,88.0,74.8,29.93,West,281,6.0,16.0,65,0.00,,CLR,0.00,742.00,VWS V14.01,2013-07-07 20:08:00,
2013-07-07 16:13:00,87.6,74.8,29.93,WSW,255,3.0,17.0,66,0.00,,CLR,0.00,735.00,VWS V14.01,2013-07-07 20:13:00,
2013-07-07 16:18:00,87.3,75.4,29.93,West,264,4.0,16.0,68,0.00,,CLR,0.00,710.00,VWS V14.01,2013-07-07 20:18:00,
2013-07-07 16:23:00,87.0,75.2,29.92,WSW,242,11.0,15.0,68,0.00,,CLR,0.00,585.00,VWS V14.01,2013-07-07 20:23:00,
2013-07-07 16:28:00,86.9,75.5,29.93,WNW,294,11.0,14.0,69,0.00,,CLR,0.00,545.00,VWS V14.01,2013-07-07 20:28:00,
2013-07-07 16:33:00,86.6,75.2,29.92,WSW,244,9.0,14.0,69,0.00,,CLR,0.00,675.00,VWS V14.01,2013-07-07 20:33:00,
2013-07-07 16:38:00,86.8,75.8,29.92,West,276,7.0,14.0,70,0.00,,CLR,0.00,647.00,VWS V14.01,2013-07-07 20:38:00,
2013-07-07 16:43:00,86.6,75.7,29.92,WSW,257,3.0,10.0,70,0.00,,CLR,0.00,610.00,VWS V14.01,2013-07-07 20:43:00,
2013-07-07 16:48:00,86.5,76.4,29.93,WSW,252,0.0,13.0,72,0.00,,CLR,0.00,605.00,VWS V14.01,2013-07-07 20:48:00,
2013-07-07 16:53:00,86.3,75.4,29.92,WSW,241,8.0,15.0,70,0.00,,CLR,0.00,599.00,VWS V14.01,2013-07-07 20:53:00,
2013-07-07 16:58:00,86.3,75.8,29.91,WNW,295,5.0,15.0,71,0.00,,CLR,0.00,550.00,VWS V14.01,2013-07-07 20:58:00,
2013-07-07 17:03:00,86.1,75.6,29.91,WSW,248,5.0,15.0,71,0.00,,CLR,0.00,534.00,VWS V14.01,2013-07-07 21:03:00,
2013-07-07 17:08:00,85.6,75.5,29.91,WSW,249,7.0,15.0,72,0.00,,CLR,0.00,529.00,VWS V14.01,2013-07-07 21:08:00,
2013-07-07 17:13:00,85.4,75.8,29.91,WSW,252,8.0,16.0,73,0.00,,CLR,0.00,513.00,VWS V14.01,2013-07-07 21:13:00,
2013-07-07 17:18:00,85.5,75.9,29.91,WNW,296,9.0,11.0,73,0.00,,CLR,0.00,432.00,VWS V14.01,2013-07-07 21:18:00,
2013-07-07 17:23:00,85.2,75.6,29.92,WSW,239,8.0,12.0,73,0.00,,CLR,0.00,503.00,VWS V14.01,2013-07-07 21:23:00,
2013-07-07 17:28:00,85.3,75.7,29.92,WSW,257,9.0,15.0,73,0.00,,CLR,0.00,445.00,VWS V14.01,2013-07-07 21:28:00,
2013-07-07 17:33:00,85.4,75.8,29.91,WSW,257,4.0,10.0,73,0.00,,CLR,0.00,462.00,VWS V14.01,2013-07-07 21:33:00,
2013-07-07 17:38:00,85.4,75.8,29.91,WSW,249,7.0,14.0,73,0.00,,CLR,0.00,427.00,VWS V14.01,2013-07-07 21:38:00,
2013-07-07 17:43:00,85.2,75.6,29.90,WSW,250,7.0,11.0,73,0.00,,CLR,0.00,432.00,VWS V14.01,2013-07-07 21:43:00,
2013-07-07 17:48:00,85.1,75.5,29.91,WSW,242,9.0,15.0,73,0.00,,CLR,0.00,383.00,VWS V14.01,2013-07-07 21:48:00,
2013-07-07 17:53:00,84.8,75.6,29.91,WSW,254,3.0,13.0,74,0.00,,CLR,0.00,362.00,VWS V14.01,2013-07-07 21:53:00,
2013-07-07 17:58:00,84.5,75.7,29.91,West,277,7.0,12.0,75,0.00,,CLR,0.00,345.00,VWS V14.01,2013-07-07 21:58:00,
2013-07-07 18:03:00,84.4,75.6,29.91,WSW,254,1.0,9.0,75,0.00,,CLR,0.00,323.00,VWS V14.01,2013-07-07 22:03:00,
2013-07-07 18:08:00,84.6,75.8,29.91,WNW,283,2.0,8.0,75,0.00,,CLR,0.00,341.00,VWS V14.01,2013-07-07 22:08:00,
2013-07-07 18:13:00,84.4,75.6,29.91,WSW,256,5.0,13.0,75,0.00,,CLR,0.00,318.00,VWS V14.01,2013-07-07 22:13:00,
2013-07-07 18:18:00,84.0,75.2,29.91,West,271,4.0,14.0,75,0.00,,CLR,0.00,288.00,VWS V14.01,2013-07-07 22:18:00,
2013-07-07 18:23:00,83.7,75.3,29.91,West,265,6.0,15.0,76,0.00,,CLR,0.00,288.00,VWS V14.01,2013-07-07 22:23:00,
2013-07-07 18:28:00,83.3,74.9,29.91,WSW,254,5.0,9.0,76,0.00,,CLR,0.00,225.00,VWS V14.01,2013-07-07 22:28:00,
2013-07-07 18:33:00,82.9,75.3,29.91,West,261,9.0,9.0,78,0.00,,CLR,0.00,190.00,VWS V14.01,2013-07-07 22:33:00,
2013-07-07 18:38:00,82.5,75.3,29.91,WSW,244,7.0,10.0,79,0.00,,CLR,0.00,181.00,VWS V14.01,2013-07-07 22:38:00,
2013-07-07 18:43:00,82.2,75.0,29.91,WSW,246,8.0,12.0,79,0.00,,CLR,0.00,186.00,VWS V14.01,2013-07-07 22:43:00,
2013-07-07 18:48:00,82.1,75.3,29.91,WSW,254,4.0,11.0,80,0.00,,CLR,0.00,209.00,VWS V14.01,2013-07-07 22:48:00,
2013-07-07 18:53:00,82.1,75.3,29.91,WSW,254,1.0,11.0,80,0.00,,CLR,0.00,193.00,VWS V14.01,2013-07-07 22:53:00,
2013-07-07 18:58:00,82.0,75.2,29.91,West,269,6.0,11.0,80,0.00,,CLR,0.00,193.00,VWS V14.01,2013-07-07 22:58:00,
2013-07-07 19:03:00,81.9,75.1,29.91,West,279,1.0,8.0,80,0.00,,CLR,0.00,195.00,VWS V14.01,2013-07-07 23:03:00,
2013-07-07 19:08:00,81.9,75.5,29.91,West,279,7.0,8.0,81,0.00,,CLR,0.00,176.00,VWS V14.01,2013-07-07 23:08:00,
2013-07-07 19:13:00,81.8,75.4,29.91,West,272,6.0,8.0,81,0.00,,CLR,0.00,155.00,VWS V14.01,2013-07-07 23:13:00,
2013-07-07 19:18:00,81.8,75.4,29.91,West,264,0.0,9.0,81,0.00,,CLR,0.00,127.00,VWS V14.01,2013-07-07 23:18:00,
2013-07-07 19:23:00,81.7,75.3,29.91,West,262,0.0,9.0,81,0.00,,CLR,0.00,132.00,VWS V14.01,2013-07-07 23:23:00,
2013-07-07 19:28:00,81.5,75.1,29.91,WSW,251,7.0,10.0,81,0.00,,CLR,0.00,118.00,VWS V14.01,2013-07-07 23:28:00,
2013-07-07 19:32:00,81.1,75.1,29.90,WSW,257,1.0,10.0,82,0.00,,CLR,0.00,100.00,VWS V14.01,2013-07-07 23:32:00,
2013-07-07 19:37:00,80.9,74.9,29.91,West,259,7.0,10.0,82,0.00,,CLR,0.00,79.00,VWS V14.01,2013-07-07 23:37:00,
2013-07-07 19:42:00,80.5,74.9,29.91,WSW,256,4.0,11.0,83,0.00,,CLR,0.00,62.00,VWS V14.01,2013-07-07 23:42:00,
2013-07-07 19:47:00,80.1,74.5,29.90,WSW,257,7.0,10.0,83,0.00,,CLR,0.00,42.00,VWS V14.01,2013-07-07 23:47:00,
2013-07-07 19:52:00,79.8,74.5,29.91,West,263,10.0,10.0,84,0.00,,CLR,0.00,28.00,VWS V14.01,2013-07-07 23:52:00,
2013-07-07 19:57:00,79.4,74.5,29.90,WSW,246,9.0,12.0,85,0.00,,CLR,0.00,25.00,VWS V14.01,2013-07-07 23:57:00,
2013-07-07 20:02:00,79.1,74.2,29.91,WSW,249,5.0,11.0,85,0.00,,CLR,0.00,21.00,VWS V14.01,2013-07-08 00:02:00,
2013-07-07 20:07:00,78.9,74.4,29.91,West,263,0.0,7.0,86,0.00,,CLR,0.00,16.00,VWS V14.01,2013-07-08 00:07:00,
2013-07-07 20:12:00,78.8,74.3,29.90,WSW,254,0.0,7.0,86,0.00,,CLR,0.00,11.00,VWS V14.01,2013-07-08 00:12:00,
2013-07-07 20:17:00,78.6,74.1,29.90,West,273,4.0,7.0,86,0.00,,CLR,0.00,7.00,VWS V14.01,2013-07-08 00:17:00,
2013-07-07 20:22:00,78.5,74.0,29.90,WSW,252,5.0,10.0,86,0.00,,CLR,0.00,5.00,VWS V14.01,2013-07-08 00:22:00,
2013-07-07 20:27:00,78.4,74.2,29.90,WSW,250,0.0,12.0,87,0.00,,CLR,0.00,0.00,VWS V14.01,2013-07-08 00:27:00,
2013-07-07 20:32:00,78.2,74.0,29.90,West,260,0.0,9.0,87,0.00,,CLR,0.00,0.00,VWS V14.01,2013-07-08 00:32:00,
2013-07-07 20:37:00,78.0,73.8,29.90,WSW,254,0.0,10.0,87,0.00,,CLR,0.00,0.00,VWS V14.01,2013-07-08 00:37:00,
2013-07-07 20:42:00,77.9,73.7,29.90,West,267,3.0,10.0,87,0.00,,CLR,0.00,0.00,VWS V14.01,2013-07-08 00:42:00,
2013-07-07 20:47:00,77.8,74.0,29.90,WSW,257,1.0,9.0,88,0.00,,CLR,0.00,0.00,VWS V14.01,2013-07-08 00:47:00,
2013-07-07 20:52:00,77.8,74.0,29.91,West,279,2.0,9.0,88,0.00,,CLR,0.00,0.00,VWS V14.01,2013-07-08 00:52:00,
2013-07-07 20:57:00,77.8,74.0,29.91,West,267,12.0,12.0,88,0.00,,CLR,0.00,0.00,VWS V14.01,2013-07-08 00:57:00,
2013-07-07 21:02:00,77.9,73.7,29.91,West,273,7.0,10.0,87,0.00,,CLR,0.00,0.00,VWS V14.01,2013-07-08 01:02:00,
2013-07-07 21:07:00,77.9,73.7,29.91,WSW,258,6.0,12.0,87,0.00,,CLR,0.00,0.00,VWS V14.01,2013-07-08 01:07:00,
2013-07-07 21:12:00,77.9,73.7,29.92,WSW,252,9.0,10.0,87,0.00,,CLR,0.00,0.00,VWS V14.01,2013-07-08 01:12:00,
2013-07-07 21:17:00,77.9,73.7,29.92,West,275,4.0,10.0,87,0.00,,CLR,0.00,0.00,VWS V14.01,2013-07-08 01:17:00,
2013-07-07 21:22:00,77.9,73.4,29.92,West,270,8.0,12.0,86,0.00,,CLR,0.00,0.00,VWS V14.01,2013-07-08 01:22:00,
2013-07-07 21:27:00,77.9,73.7,29.93,West,264,0.0,7.0,87,0.00,,CLR,0.00,0.00,VWS V14.01,2013-07-08 01:27:00,
2013-07-07 21:32:00,77.9,73.7,29.93,West,273,4.0,10.0,87,0.00,,CLR,0.00,0.00,VWS V14.01,2013-07-08 01:32:00,
2013-07-07 21:37:00,77.9,73.4,29.93,NNW,327,0.0,8.0,86,0.00,,CLR,0.00,0.00,VWS V14.01,2013-07-08 01:37:00,
2013-07-07 21:42:00,77.9,73.4,29.93,West,261,4.0,9.0,86,0.00,,CLR,0.00,0.00,VWS V14.01,2013-07-08 01:42:00,
2013-07-07 21:47:00,77.9,73.4,29.93,West,264,6.0,10.0,86,0.00,,CLR,0.00,0.00,VWS V14.01,2013-07-08 01:47:00,
2013-07-07 21:52:00,78.0,73.5,29.93,West,269,4.0,10.0,86,0.00,,CLR,0.00,0.00,VWS V14.01,2013-07-08 01:52:00,
2013-07-07 21:57:00,78.0,73.5,29.93,West,262,2.0,8.0,86,0.00,,CLR,0.00,0.00,VWS V14.01,2013-07-08 01:57:00,
2013-07-07 22:02:00,77.9,73.4,29.93,WNW,301,7.0,7.0,86,0.00,,CLR,0.00,0.00,VWS V14.01,2013-07-08 02:02:00,
2013-07-07 22:07:00,77.9,73.4,29.92,West,263,0.0,8.0,86,0.00,,CLR,0.00,0.00,VWS V14.01,2013-07-08 02:07:00,
2013-07-07 22:12:00,77.8,73.6,29.92,West,271,1.0,5.0,87,0.00,,CLR,0.00,0.00,VWS V14.01,2013-07-08 02:12:00,
2013-07-07 22:17:00,77.8,73.6,29.93,West,264,2.0,9.0,87,0.00,,CLR,0.00,0.00,VWS V14.01,2013-07-08 02:17:00,
2013-07-07 22:22:00,77.8,73.6,29.92,West,276,6.0,7.0,87,0.00,,CLR,0.00,0.00,VWS V14.01,2013-07-08 02:22:00,
2013-07-07 22:27:00,77.8,73.6,29.92,WSW,254,0.0,4.0,87,0.00,,CLR,0.00,0.00,VWS V14.01,2013-07-08 02:27:00,
2013-07-07 22:32:00,77.8,73.6,29.92,WSW,248,2.0,8.0,87,0.00,,CLR,0.00,0.00,VWS V14.01,2013-07-08 02:32:00,
2013-07-07 22:37:00,77.9,73.7,29.92,West,267,0.0,7.0,87,0.00,,CLR,0.00,0.00,VWS V14.01,2013-07-08 02:37:00,
2013-07-07 22:42:00,77.9,73.7,29.92,WSW,254,0.0,4.0,87,0.00,,CLR,0.00,0.00,VWS V14.01,2013-07-08 02:42:00,
2013-07-07 22:47:00,78.0,73.8,29.92,West,268,0.0,6.0,87,0.00,,CLR,0.00,0.00,VWS V14.01,2013-07-08 02:47:00,
2013-07-07 22:52:00,78.2,73.7,29.91,WSW,254,0.0,0.0,86,0.00,,CLR,0.00,0.00,VWS V14.01,2013-07-08 02:52:00,
2013-07-07 22:57:00,78.4,73.9,29.91,WSW,246,0.0,0.0,86,0.00,,CLR,0.00,0.00,VWS V14.01,2013-07-08 02:57:00,
2013-07-07 23:02:00,78.3,73.8,29.90,WSW,248,0.0,0.0,86,0.00,,CLR,0.00,0.00,VWS V14.01,2013-07-08 03:02:00,
2013-07-07 23:07:00,78.2,73.7,29.90,SW,231,2.0,4.0,86,0.00,,CLR,0.00,0.00,VWS V14.01,2013-07-08 03:07:00,
2013-07-07 23:12:00,78.0,73.8,29.90,WSW,248,4.0,5.0,87,0.00,,CLR,0.00,0.00,VWS V14.01,2013-07-08 03:12:00,
2013-07-07 23:17:00,78.0,74.2,29.90,WSW,239,2.0,5.0,88,0.00,,CLR,0.00,0.00,VWS V14.01,2013-07-08 03:17:00,
2013-07-07 23:22:00,78.1,73.9,29.89,WSW,246,3.0,5.0,87,0.00,,CLR,0.00,0.00,VWS V14.01,2013-07-08 03:22:00,
2013-07-07 23:27:00,77.9,74.1,29.89,WSW,237,0.0,5.0,88,0.00,,CLR,0.00,0.00,VWS V14.01,2013-07-08 03:27:00,
2013-07-07 23:32:00,77.6,74.1,29.90,WSW,254,0.0,6.0,89,0.00,,CLR,0.00,0.00,VWS V14.01,2013-07-08 03:32:00,
2013-07-07 23:37:00,77.6,74.1,29.90,WSW,246,0.0,8.0,89,0.00,,CLR,0.00,0.00,VWS V14.01,2013-07-08 03:37:00,
2013-07-07 23:42:00,77.5,74.0,29.90,WSW,251,0.0,5.0,89,0.00,,CLR,0.00,0.00,VWS V14.01,2013-07-08 03:42:00,
2013-07-07 23:47:00,77.4,73.9,29.90,WSW,247,0.0,8.0,89,0.00,,CLR,0.00,0.00,VWS V14.01,2013-07-08 03:47:00,
2013-07-07 23:52:00,77.6,74.1,29.90,West,259,0.0,4.0,89,0.00,,CLR,0.00,0.00,VWS V14.01,2013-07-08 03:52:00,
2013-07-07 23:57:00,77.6,73.8,29.90,WSW,254,1.0,8.0,88,0.00,,CLR,0.00,0.00,VWS V14.01,2013-07-08 03:57:00,